sat.trackr.live / text

‹ back to catalog

STARLINK-34292

NORAD 64390 · 2025-127W

PAYLOAD ACTIVE UNKNOWN

§ Identity

Operator
Country
US
Launch date
2025-06-13
Launch site
AFETR
Launch vehicle
Mass (kg)
RCS (m²)

Purposes: comms

External: N2YO · Heavens-Above · Gunter

§ Orbital elements

Epoch: 2026-05-25T04:23:25.305792Z

Period
94.27 min
Inclination
42.9994°
Eccentricity
0.0000559
Mean motion
15.27593513 rev/d
Perigee alt
482.6 km
Apogee alt
483.4 km
Semi-major
6,861.1 km
B*
5.7825e-4
RAAN
107.9638°
Arg perigee
287.0219°
Mean anomaly
73.0571°
Rev number
5,416

§ Raw data

STARLINK-342921 64390U 25127W   26145.18293178  .00015691  00000+0  57825-3 0  99972 64390  42.9994 107.9638 0000559 287.0219  73.0571 15.27593513 54163

JSON: /api/v1/satellites/64390 · /tle

For live sub-satellite position, see the globe view (requires WebGL).

§ Visibility from observer

Set your observer location to see the next 7 days of passes ≥ 10°. The values pass through the URL so the page stays shareable.

No JS? Fill the form by hand. The geolocation button needs JavaScript.